Location: Coopersdale
(40.3556°N, 78.9372°W)
Time: 13:52:42
(UTC+00:00)

Vanguard 2 Rocket - All Passes

Search period start: 25 January 2021 00:00
Search period end: 04 February 2021 00:00
Orbit: 554 x 3325 km, 32.9° (Epoch: 25 January)

Date Brightness Start Highest point End Pass type
(mag) Time Alt. Az. Time Alt. Az. Time Alt. Az.
25 Jan - 00:19:24 10° W 00:26:33 34° SSW 00:31:09 10° SE visible
25 Jan - 16:32:04 10° S 16:42:40 18° SE 16:51:25 10° ESE daylight
25 Jan - 18:43:12 10° SW 18:58:24 38° SSE 19:08:13 10° E daylight
25 Jan - 20:59:53 10° WSW 21:13:26 54° S 21:21:07 10° E daylight
25 Jan - 23:17:43 10° W 23:27:07 45° SSW 23:32:41 10° ESE visible
26 Jan - 01:35:33 10° WSW 01:39:04 15° SW 01:41:56 10° S visible
26 Jan - 15:35:25 10° SSE 15:41:32 12° SE 15:47:11 10° ESE daylight
26 Jan - 17:42:04 10° SSW 17:57:22 33° SSE 18:08:11 10° E daylight
26 Jan - 19:57:37 10° WSW 20:12:57 51° S 20:21:57 10° E daylight
26 Jan - 22:15:39 10° W 22:27:22 53° S 22:33:58 10° ESE daylight
27 Jan - 00:33:30 10° W 00:40:01 26° SSW 00:44:27 10° SSE visible
27 Jan - 16:41:41 10° SSW 16:56:11 27° SSE 17:07:27 10° E daylight
27 Jan - 18:55:32 10° SW 19:12:07 48° SSE 19:22:29 10° E daylight
27 Jan - 21:13:17 10° WSW 21:27:15 58° S 21:35:04 10° ESE daylight
27 Jan - 23:31:34 10° W 23:40:44 39° SSW 23:46:17 10° SE visible
28 Jan - 15:42:26 10° S 15:54:57 21° SE 16:05:39 10° ESE daylight
28 Jan - 17:53:51 10° SW 18:11:00 42° SSE 18:22:39 10° E daylight
28 Jan - 20:10:47 10° WSW 20:26:44 58° S 20:35:56 10° E daylight
28 Jan - 22:29:22 10° W 22:41:04 50° SSW 22:47:45 10° ESE daylight
29 Jan - 00:47:59 10° W 00:53:18 19° SW 00:57:13 10° S visible
29 Jan - 14:45:18 10° SSE 14:53:46 14° SE 15:01:41 10° ESE daylight
29 Jan - 16:52:47 10° SSW 17:09:40 36° SSE 17:22:20 10° E daylight
29 Jan - 19:08:23 10° WSW 19:25:50 56° SSE 19:36:32 10° E daylight
29 Jan - 21:26:53 10° W 21:41:00 58° S 21:48:56 10° ESE daylight
29 Jan - 23:45:34 10° W 23:54:09 31° SSW 23:59:35 10° SSE visible
30 Jan - 15:52:33 10° SSW 16:08:15 30° SE 16:21:18 10° E daylight
30 Jan - 18:06:18 10° SW 18:24:36 52° SSE 18:36:49 10° E daylight
30 Jan - 20:24:13 10° WSW 20:40:30 62° S 20:49:51 10° ESE daylight
30 Jan - 22:43:10 10° W 22:54:37 43° SSW 23:01:19 10° SE visible
31 Jan - 01:03:40 10° WSW 01:06:21 12° SW 01:08:39 10° SSW visible
31 Jan - 14:53:27 10° S 15:06:55 23° SE 15:19:11 10° E daylight
31 Jan - 17:04:45 10° SW 17:23:07 46° SSE 17:36:42 10° E daylight
31 Jan - 19:21:35 10° WSW 19:39:33 62° S 19:50:30 10° E daylight
31 Jan - 21:40:34 10° W 21:54:39 54° SSW 22:02:40 10° ESE daylight
31 Jan - 23:59:55 10° W 00:07:20 23° SW 00:12:25 10° S visible
01 Feb - 13:56:18 10° SSE 14:05:47 15° SE 14:15:02 10° ESE daylight
01 Feb - 16:03:55 10° SSW 16:21:32 39° SSE 16:36:01 10° E daylight
01 Feb - 18:19:13 10° WSW 18:38:14 59° SSE 18:50:50 10° E daylight
01 Feb - 20:37:48 10° W 20:54:12 61° S 21:03:41 10° ESE daylight
01 Feb - 22:57:07 10° W 23:07:58 35° SSW 23:14:37 10° SSE visible
02 Feb - 15:03:57 10° SSW 15:20:01 32° SE 15:34:36 10° E daylight
02 Feb - 17:17:19 10° SW 17:36:37 55° SSE 17:50:46 10° E daylight
02 Feb - 19:35:02 10° WSW 19:53:16 64° S 20:04:23 10° ESE daylight
02 Feb - 21:54:20 10° W 22:08:09 47° SSW 22:16:12 10° SE daylight
03 Feb - 00:15:03 10° WSW 00:20:16 15° SW 00:24:20 10° SSW visible
03 Feb - 14:05:07 10° S 14:18:41 24° SE 14:32:04 10° E daylight
03 Feb - 16:16:03 10° SW 16:34:51 48° SSE 16:50:16 10° E daylight
03 Feb - 18:32:28 10° WSW 18:51:54 64° S 19:04:44 10° E daylight
03 Feb - 20:51:28 10° W 21:07:49 57° SSW 21:17:23 10° ESE daylight
03 Feb - 23:11:21 10° W 23:21:03 26° SW 23:27:28 10° SSE visible
